#timestamp,LO_Frequency,Hit,StdDev 
1567432815.5,286046999.3,N
1567432835.3,286046998.5,N
1567432855.2,286046998.4,N
1567432875.0,286046999.1,N
1567432875.9,286046999.1,N
1567432895.8,286046999.5,N
1567432915.6,286046999.3,N
1567432935.4,286046998.7,N
1567432955.3,286046999.2,N
1567432975.1,286046998.6,N
1567432995.8,286046998.7,N
1567433015.7,286047000.7,N
1567433035.5,286046998.3,N
1567433055.4,286047001.1,N
1567433075.2,286047000.8,N
1567433095.0,286046998.5,N
1567433095.9,286046998.5,N
1567433115.8,286047000.7,N
1567433135.6,286047000.8,N
1567433155.5,286047000.4,N
1567433175.3,286047001.2,N
1567433195.1,286046998.5,N
1567433215.9,286046998.6,N
1567433235.7,286046998.5,N
1567433255.5,286046998.6,N
1567433275.4,286047001.0,N
1567433295.2,286047000.6,N
1567433315.1,286046998.1,N
1567433316.0,286046998.1,N
1567433335.8,286046998.2,N
1567433355.7,286046998.2,N
1567433375.5,286046998.3,N
1567433395.3,286047001.2,N
1567433415.2,286047001.0,N
1567433435.0,286047001.1,N
1567433435.9,286047001.1,N
1567433455.8,286046998.4,N
1567433475.6,286046998.1,N
1567433495.4,286047000.1,N
1567433515.3,286046998.4,N
1567433535.1,286046999.0,N
1567433555.8,286046998.0,N
1567433575.7,286046997.2,N
1567433595.5,286046997.7,N
1567433615.4,286046997.6,N
1567433635.2,286046999.3,N
1567433655.0,286046999.0,N
1567433655.9,286046999.0,N
1567433675.8,286046999.3,N
1567433695.6,286046999.2,N
1567433715.5,286046998.5,N
1567433735.3,286047001.1,N
1567433755.1,286047000.6,N
1567433775.9,286047002.6,N
1567433795.7,286047002.6,N
1567433815.6,286046999.7,N
1567433835.4,286047002.4,N
1567433855.2,286047002.7,N
1567433875.1,286047002.5,N
1567433876.0,286047002.5,N
1567433895.8,286046999.7,N
1567433915.6,286047000.7,N
1567433935.5,286047001.2,N
1567433955.3,286047001.2,N
1567433975.2,286046999.1,N
1567433995.0,286046999.1,N
1567433995.9,286046999.1,N
1567434015.7,286046997.2,N
1567434035.6,286046994.9,Y
1567434055.4,286046996.5,P
1567434075.3,286046996.6,N
1567434095.1,286046997.1,N
1567434115.8,286046997.2,N
1567434135.7,286046994.9,Y
1567434155.5,286046998.4,P
1567434175.4,286046998.6,P
1567434195.2,286046999.5,N
1567434215.0,286046996.9,Y
1567434215.9,286046996.9,P
1567434235.8,286046999.0,N
1567434255.6,286046998.2,N
1567434275.5,286046999.1,N
1567434295.3,286046998.3,N
1567434315.1,286047001.1,N
1567434335.9,286047000.7,N
1567434355.7,286046998.7,N
1567434375.6,286046999.4,N
1567434395.4,286046997.8,N
1567434415.2,286046996.7,N
1567434435.1,286046997.1,N
1567434436.0,286046997.1,N
1567434455.8,286046997.0,N
1567434475.6,286046997.6,N
1567434495.5,286046995.7,Y
1567434515.3,286046999.5,P
1567434535.2,286046996.9,P
1567434555.9,286046996.8,P
1567434575.7,286046999.5,N
1567434595.6,286046997.9,N
1567434615.4,286046997.8,N
1567434635.3,286046998.0,N
1567434655.1,286046996.8,Y
1567434656.0,286046996.8,P
1567434675.8,286046999.5,N
1567434695.7,286046999.0,N
1567434715.5,286047000.7,N
1567434735.3,286047000.6,N
1567434755.2,286047002.7,N
1567434775.0,286046999.8,N
1567434775.9,286046999.8,N
1567434795.8,286047002.7,N
1567434815.6,286047002.6,N
1567434835.4,286047001.9,N
1567434855.3,286047002.6,N
1567434875.1,286047002.6,N
1567434895.9,286047001.6,N
1567434915.7,286047002.8,N
1567434935.5,286047002.8,N
1567434955.4,286047001.9,N
1567434975.2,286047004.2,N
1567434995.1,286047001.9,N
1567434996.0,286047001.9,N
1567435015.8,286047002.1,N
1567435035.6,286047001.5,N
1567435055.5,286047003.7,N
1567435075.3,286047004.4,N
1567435095.1,286047003.9,N
1567435115.6,286047003.6,N
1567435135.4,286047003.4,N
1567435155.3,286047003.1,N
1567435175.1,286047004.1,N
1567435195.8,286047004.1,N
1567435215.7,286047003.7,N
1567435235.5,286047003.4,N
1567435255.4,286047003.1,N
1567435275.2,286047005.6,Y
1567435295.0,286047002.2,P
1567435295.9,286047002.2,P
1567435315.8,286046999.8,N
1567435335.6,286047002.8,N
1567435355.5,286047002.7,N
1567435375.3,286047002.7,N
1567435395.1,286047001.4,N
1567435415.9,286047001.8,N
1567435435.7,286047001.8,N
1567435455.6,286047001.3,N
1567435475.4,286047004.1,Y
1567435495.2,286047000.1,P
1567435515.1,286046999.9,N
1567435516.0,286046999.9,N
1567435535.8,286047002.4,N
1567435555.7,286047002.6,N
1567435575.5,286047002.1,N
1567435595.3,286047002.7,N
1567435615.2,286047002.6,N
1567435635.0,286047002.4,N
1567435635.9,286047002.4,N
1567435655.8,286047002.3,N
1567435675.6,286047000.2,N
1567435695.4,286047002.8,N
1567435715.3,286047000.3,N
1567435735.1,286047002.8,N
1567435755.8,286047002.8,N
1567435775.7,286047002.5,N
1567435795.5,286047002.1,N
1567435815.4,286047002.2,N
1567435835.2,286047002.2,N
1567435855.0,286047002.5,N
1567435855.9,286047002.5,N
1567435875.8,286047002.5,N
1567435895.6,286047002.1,N
1567435915.5,286047002.5,N
1567435935.3,286047002.4,N
1567435955.1,286047002.0,N
1567435975.9,286047001.4,N
1567435995.7,286047004.3,Y
1567436015.5,286046999.8,P
1567436035.4,286047000.5,N
1567436055.2,286047002.7,N
1567436075.1,286047001.6,N
1567436076.0,286047001.6,N
1567436095.8,286047001.5,N
1567436115.6,286047001.9,N
1567436135.5,286047002.3,N
1567436155.3,286047002.1,N
1567436175.2,286047000.2,N
1567436195.9,286047000.3,N
1567436215.7,286047002.8,Y
1567436235.6,286047000.7,P
1567436255.4,286047000.0,N
1567436275.3,286046998.2,P
1567436295.1,286046998.4,N
1567436296.0,286046998.4,N
1567436315.8,286047000.8,N
1567436335.7,286047000.5,N
1567436355.5,286047000.1,N
1567436375.3,286047002.3,N
1567436395.2,286047002.0,N
